Погода в Нукусе

Узбекистан     42°27′37″N   59°37′04″E
темп.,
°C
ветер,
м/с
пор.,
м/с
влажн.,
%
обл.,
%
осадки,
мм/ч
давл.,
гПа
погр.,
м
1 августа, вс
вс123:00+25ссв510183 0.0 1011161
02:00+24ссв510301 0.0 1010165
05:00+23ссв44355 0.0 101052
08:00+27ссв46254 0.0 1011197
11:00+35св68122 0.0 10102563
14:00+38св7892 0.0 10083112
17:00+37ссв109100 0.0 10083047
20:00+32с814150 0.0 1008509
2 августа, пн
пн223:00+27ссв615280 0.0 1009322
02:00+25ссв512320 0.0 1008212
05:00+25ссв47290 0.0 1008111
08:00+29ссв48260 0.0 1009221
11:00+37св68130 0.0 10092556
14:00+40св68115 0.0 10074361
17:00+39с1191230 0.0 10063190
20:00+34с813175 0.0 1007463
3 августа, вт
вт323:00+29с410245 0.0 1008195
02:00+28с35265 0.0 100856
05:00+27с463232 0.0 100886
08:00+30ссв46328 0.0 1009254
11:00+38св45165 0.0 10091238
14:00+41св541127 0.0 10084567
17:00+40св1081211 0.0 10072328
20:00+34ссв9132239 0.0 1008415
4 августа, ср
ср423:00+29ссв410280 0.0 1009174
02:00+27с45320 0.0 100967
05:00+25с45437 0.0 100970
08:00+29св3441100 0.0 1010179
11:00+38всв5816100 0.0 10101531
14:00+41св971251 0.0 10094266
17:00+40св761163 0.0 10084176
20:00+35ссв81317100 0.0 1009441
5 августа, чт
чт523:00+30ссв5112381 0.0 1009185
02:00+29св4926100 0.0 1009167
05:00+27с453497 0.0 101074
08:00+30ссв46325 0.0 1010209
11:00+38св69140 0.0 10102871
14:00+40св67122 0.0 10083887
17:00+40ссв97121 0.0 10083803
20:00+35ссв711160 0.0 1008302